When you browse on this site, cookies collect data to enhance your experience and personalize the content and advertising you see.
Visit our Privacy Policy to learn more. By continuing to use the site, you agree to this use of cookies and data.
  • In Deutschland
  • Länderverzeichnis
  • Für 7 Tage
  • Wassertemperatur
  • Wetterkarte
  • Widgets
  • user-avatar
    Anmelden

    Stündliche Wetter Cairns

    Heute, 23 August, Freitag

    Zeit Temperatur Niederschläge Wind Luftdruck Luftfeuchtigkeit
    00:00 +14°C° 0 mm 2 m/S 762 mmHg 54%
    01:00 +14°C° 0 mm 2 m/S 762 mmHg 51%
    02:00 +14°C° 0 mm 2 m/S 762 mmHg 50%
    03:00 +14°C° 0 mm 2 m/S 762 mmHg 49%
    04:00 +14°C° 0 mm 2 m/S 762 mmHg 47%
    05:00 +14°C° 0 mm 2 m/S 762 mmHg 47%
    06:00 +14°C° 0 mm 2 m/S 762 mmHg 47%
    07:00 +14°C° 0 mm 2 m/S 763 mmHg 47%
    08:00 +18°C° 0 mm 2 m/S 763 mmHg 39%
    09:00 +23°C° 0 mm 2 m/S 763 mmHg 30%
    10:00 +28°C° 0 mm 2 m/S 763 mmHg 19%
    11:00 +29°C° 0 mm 3 m/S 763 mmHg 19%
    12:00 +29°C° 0 mm 4 m/S 762 mmHg 20%
    13:00 +29°C° 0 mm 5 m/S 762 mmHg 20%
    14:00 +28°C° 0 mm 5 m/S 762 mmHg 24%
    15:00 +27°C° 0 mm 5 m/S 762 mmHg 27%
    16:00 +27°C° 0 mm 5 m/S 762 mmHg 30%
    17:00 +23°C° 0 mm 4 m/S 762 mmHg 44%
    18:00 +20°C° 0 mm 4 m/S 762 mmHg 58%
    19:00 +17°C° 0 mm 4 m/S 763 mmHg 72%
    20:00 +16°C° 0 mm 3 m/S 763 mmHg 78%
    21:00 +16°C° 0 mm 3 m/S 763 mmHg 84%
    22:00 +14°C° 0 mm 3 m/S 764 mmHg 91%
    23:00 +14°C° 0 mm 3 m/S 763 mmHg 92%

    Morgen, 24 August, Samstag

    Zeit Temperatur Niederschläge Wind Luftdruck Luftfeuchtigkeit
    00:00 +14°C° 0 mm 3 m/S 763 mmHg 94%
    01:00 +14°C° 0 mm 3 m/S 763 mmHg 95%
    02:00 +14°C° 0 mm 3 m/S 763 mmHg 95%
    03:00 +14°C° 0 mm 3 m/S 763 mmHg 95%
    04:00 +14°C° 0 mm 3 m/S 763 mmHg 95%
    05:00 +14°C° 0 mm 3 m/S 763 mmHg 94%
    06:00 +16°C° 0 mm 3 m/S 763 mmHg 93%
    07:00 +16°C° 0 mm 3 m/S 764 mmHg 93%
    08:00 +19°C° 0 mm 4 m/S 764 mmHg 79%
    09:00 +22°C° 0 mm 4 m/S 764 mmHg 65%
    10:00 +25°C° 0 mm 4 m/S 764 mmHg 52%
    11:00 +26°C° 0 mm 5 m/S 763 mmHg 51%
    12:00 +27°C° 0 mm 5 m/S 763 mmHg 50%
    13:00 +28°C° 0 mm 5 m/S 762 mmHg 48%
    14:00 +27°C° 0 mm 5 m/S 762 mmHg 50%
    15:00 +27°C° 0 mm 4 m/S 761 mmHg 51%
    16:00 +26°C° 0 mm 4 m/S 761 mmHg 53%
    17:00 +23°C° 0 mm 4 m/S 761 mmHg 63%
    18:00 +20°C° 0 mm 3 m/S 762 mmHg 73%
    19:00 +18°C° 0 mm 3 m/S 762 mmHg 84%
    20:00 +17°C° 0 mm 3 m/S 763 mmHg 86%
    21:00 +17°C° 0 mm 3 m/S 763 mmHg 88%
    22:00 +16°C° 0 mm 3 m/S 763 mmHg 90%
    23:00 +16°C° 0 mm 2 m/S 763 mmHg 90%

    übermorgen, 25 August, Sonntag

    Zeit Temperatur Niederschläge Wind Luftdruck Luftfeuchtigkeit
    00:00 +16°C° 0 mm 2 m/S 762 mmHg 90%
    01:00 +16°C° 0 mm 2 m/S 762 mmHg 90%
    02:00 +16°C° 0 mm 2 m/S 762 mmHg 91%
    03:00 +16°C° 0 mm 3 m/S 762 mmHg 92%
    04:00 +16°C° 0 mm 3 m/S 761 mmHg 92%
    05:00 +17°C° 0 mm 3 m/S 762 mmHg 93%
    06:00 +17°C° 0 mm 3 m/S 762 mmHg 93%
    07:00 +17°C° 0 mm 3 m/S 762 mmHg 93%
    08:00 +20°C° 0.1 mm 4 m/S 762 mmHg 85%
    09:00 +22°C° 0.1 mm 4 m/S 762 mmHg 76%
    10:00 +26°C° 0.1 mm 4 m/S 762 mmHg 68%
    11:00 +26°C° 0.1 mm 4 m/S 762 mmHg 65%
    12:00 +27°C° 0.1 mm 4 m/S 761 mmHg 62%
    13:00 +28°C° 0.1 mm 5 m/S 760 mmHg 59%
    14:00 +27°C° 0.1 mm 5 m/S 760 mmHg 61%
    15:00 +26°C° 0.1 mm 5 m/S 760 mmHg 63%
    16:00 +26°C° 0.1 mm 5 m/S 759 mmHg 65%
    17:00 +23°C° 0 mm 4 m/S 760 mmHg 72%
    18:00 +21°C° 0 mm 4 m/S 760 mmHg 80%
    19:00 +19°C° 0 mm 4 m/S 761 mmHg 87%
    20:00 +19°C° 0 mm 3 m/S 761 mmHg 90%
    21:00 +18°C° 0 mm 3 m/S 762 mmHg 93%
    22:00 +17°C° 0 mm 3 m/S 762 mmHg 96%
    23:00 +17°C° 0 mm 3 m/S 762 mmHg 96%

    26 August, Montag

    Zeit Temperatur Niederschläge Wind Luftdruck Luftfeuchtigkeit
    00:00 +17°C° 0 mm 2 m/S 761 mmHg 96%
    01:00 +17°C° 0 mm 2 m/S 761 mmHg 97%
    02:00 +17°C° 0 mm 2 m/S 761 mmHg 97%
    03:00 +17°C° 0 mm 2 m/S 761 mmHg 97%
    04:00 +17°C° 0 mm 3 m/S 761 mmHg 97%
    05:00 +17°C° 0 mm 3 m/S 761 mmHg 96%
    06:00 +17°C° 0 mm 3 m/S 761 mmHg 96%
    07:00 +17°C° 0 mm 3 m/S 762 mmHg 96%
    08:00 +20°C° 0 mm 3 m/S 762 mmHg 82%
    09:00 +23°C° 0 mm 4 m/S 762 mmHg 69%
    10:00 +27°C° 0 mm 4 m/S 762 mmHg 55%
    11:00 +27°C° 0 mm 4 m/S 762 mmHg 54%
    12:00 +28°C° 0 mm 5 m/S 761 mmHg 53%
    13:00 +28°C° 0 mm 5 m/S 760 mmHg 52%
    14:00 +28°C° 0 mm 5 m/S 760 mmHg 55%
    15:00 +27°C° 0 mm 5 m/S 760 mmHg 58%
    16:00 +26°C° 0 mm 5 m/S 760 mmHg 61%
    17:00 +23°C° 0 mm 4 m/S 760 mmHg 71%
    18:00 +21°C° 0 mm 4 m/S 761 mmHg 82%
    19:00 +20°C° 0 mm 4 m/S 761 mmHg 92%
    20:00 +19°C° 0 mm 3 m/S 761 mmHg 93%
    21:00 +18°C° 0 mm 3 m/S 762 mmHg 95%
    22:00 +18°C° 0 mm 3 m/S 762 mmHg 96%
    23:00 +18°C° 0 mm 3 m/S 762 mmHg 97%

    27 August, Dienstag

    Zeit Temperatur Niederschläge Wind Luftdruck Luftfeuchtigkeit
    00:00 +17°C° 0 mm 3 m/S 762 mmHg 97%
    01:00 +17°C° 0 mm 3 m/S 762 mmHg 97%
    02:00 +17°C° 0 mm 4 m/S 761 mmHg 96%
    03:00 +17°C° 0 mm 4 m/S 761 mmHg 96%
    04:00 +17°C° 0 mm 4 m/S 761 mmHg 96%
    05:00 +17°C° 0 mm 4 m/S 761 mmHg 95%
    06:00 +17°C° 0 mm 4 m/S 762 mmHg 95%
    07:00 +17°C° 0 mm 4 m/S 762 mmHg 94%
    08:00 +20°C° 0 mm 4 m/S 763 mmHg 79%
    09:00 +23°C° 0 mm 4 m/S 763 mmHg 64%
    10:00 +27°C° 0 mm 5 m/S 763 mmHg 49%
    11:00 +28°C° 0 mm 5 m/S 762 mmHg 45%
    12:00 +28°C° 0 mm 6 m/S 762 mmHg 42%
    13:00 +29°C° 0 mm 6 m/S 761 mmHg 38%
    14:00 +29°C° 0 mm 6 m/S 761 mmHg 41%
    15:00 +28°C° 0 mm 6 m/S 761 mmHg 43%
    16:00 +27°C° 0 mm 6 m/S 760 mmHg 45%
    17:00 +24°C° 0 mm 6 m/S 761 mmHg 55%
    18:00 +22°C° 0 mm 5 m/S 761 mmHg 64%
    19:00 +20°C° 0 mm 5 m/S 762 mmHg 73%
    20:00 +19°C° 0 mm 4 m/S 762 mmHg 76%
    21:00 +18°C° 0 mm 4 m/S 762 mmHg 79%
    22:00 +18°C° 0 mm 4 m/S 763 mmHg 82%
    23:00 +17°C° 0 mm 4 m/S 762 mmHg 84%

    28 August, Mittwoch

    Zeit Temperatur Niederschläge Wind Luftdruck Luftfeuchtigkeit
    00:00 +17°C° 0 mm 4 m/S 762 mmHg 85%
    01:00 +17°C° 0 mm 4 m/S 762 mmHg 87%
    02:00 +15°C° 0 mm 4 m/S 762 mmHg 89%
    03:00 +16°C° 0 mm 3 m/S 761 mmHg 91%
    04:00 +16°C° 0 mm 3 m/S 761 mmHg 94%
    05:00 +16°C° 0 mm 3 m/S 762 mmHg 93%
    06:00 +16°C° 0 mm 3 m/S 762 mmHg 93%
    07:00 +16°C° 0 mm 3 m/S 763 mmHg 93%
    08:00 +20°C° 0 mm 3 m/S 763 mmHg 77%
    09:00 +23°C° 0 mm 4 m/S 763 mmHg 61%
    10:00 +27°C° 0 mm 4 m/S 763 mmHg 45%
    11:00 +28°C° 0 mm 4 m/S 762 mmHg 42%
    12:00 +29°C° 0 mm 4 m/S 761 mmHg 40%
    13:00 +32°C° 0 mm 5 m/S 761 mmHg 37%
    14:00 +30°C° 0 mm 5 m/S 760 mmHg 39%
    15:00 +29°C° 0 mm 5 m/S 760 mmHg 41%
    16:00 +29°C° 0 mm 5 m/S 759 mmHg 44%
    17:00 +26°C° 0 mm 5 m/S 760 mmHg 54%
    18:00 +23°C° 0 mm 4 m/S 760 mmHg 65%
    19:00 +20°C° 0 mm 4 m/S 761 mmHg 75%
    20:00 +19°C° 0 mm 4 m/S 761 mmHg 82%
    21:00 +18°C° 0 mm 3 m/S 761 mmHg 88%
    22:00 +17°C° 0 mm 3 m/S 762 mmHg 94%
    23:00 +17°C° 0 mm 3 m/S 761 mmHg 95%
    Mehr zeigen